Location: Étouvelles
(49.5207°N, 3.5808°E)
Time: 08:00:58
(UTC+00:00)

Meteor 2-12 Rocket - Pass Details

Date: 03 February 2023
Orbit: 935 x 957 km, 82.5° (Epoch: 30 March)

Event Time Altitude Azimuth Distance (km) Brightness Sun altitude
Rises 18:16:36 0° 349° (N) 3,625 7.5 -15.2°
Reaches altitude 10° 18:19:06 10° 350° (N) 2,672 6.8 -15.6°
Maximum altitude 18:25:14 88° 81° (E) 948 4.4 -16.6°
Drops below altitude 10° 18:31:17 10° 171° (S) 2,642 6.7 -17.5°
Sets 18:33:45 0° 172° (S) 3,581 7.4 -17.9°
